{"data":{"norad_id":65062,"intl_designator":"2025-165G","name":"STARLINK-34708","alt_names":[],"object_type":"PAYLOAD","status":"ACTIVE","operator":null,"country":"US","launch_date":"2025-07-31","launch_site_code":"AFWTR","launch_vehicle":null,"mission":null,"orbit_class":"UNKNOWN","rcs_meters":null,"size_class":null,"mass_kg":null,"dimensions":null,"purposes":["comms"],"wikipedia_slug":null,"has_3d_model":false,"image_url":null,"decayed_at":null,"tle_current":{"epoch":"2026-05-25T05:00:17.640864Z","epoch_age_seconds":67096,"freshness":"FRESH","line1":"1 65062U 25165G   26145.20853751  .00007070  00000+0  49345-3 0  9998","line2":"2 65062  97.4473 222.2719 0002908 129.7176 230.4307 15.05657168 46308","mean_motion":15.05657168,"eccentricity":0.0002908,"inclination_deg":97.4473,"raan_deg":222.2719,"arg_perigee_deg":129.7176,"mean_anomaly_deg":230.4307,"bstar":0.00049345,"rev_number":4630,"period_min":95.639301602289,"perigee_km":547.47461330762,"apogee_km":551.50372068635,"semimajor_km":6927.626166997,"source":"CELESTRAK","updated_at":"2026-05-25T13:38:20.677280Z"}}}